Theta_e
319 318 321 319 322 323 325 330 321 321 326 318 315 318 314 315 318 315 316 316 316 316 314 318 320 316 320 321 321 322 322 328 324 319 317 323 334 335 337 339 338 339 340 341 342 343 341 341 340 339 339 338 337 336 336 337 338 338 338 338 338 338 338 338 338 339 338 337 336 336 333 329 324 322 324 327 326 325 323 322 320 317 315 309 303 301 300 300 301 302 301 302 305 307 312 323 330
319 319 321 321 323 322 326 328 324 324 327 315 311 317 314 315 318 315 317 316 317 318 317 321 325 322 326 326 323 326 323 327 322 316 325 330 334 336 338 338 337 339 340 341 342 343 343 341 339 339 339 338 337 336 336 336 337 338 337 337 337 337 338 338 339 338 338 337 336 336 334 330 326 324 327 328 326 324 322 321 319 318 317 313 307 302 300 301 302 302 301 301 303 311 320 325 329
319 320 321 323 322 323 333 327 320 326 327 316 315 321 315 314 317 316 317 315 315 316 315 317 323 321 322 327 323 324 322 327 327 323 329 330 331 337 339 339 337 339 340 340 342 342 343 341 338 340 339 339 338 336 336 335 337 337 337 337 337 338 337 338 339 338 337 337 336 336 334 331 326 326 328 327 325 323 322 322 320 319 319 315 309 304 300 301 302 302 301 300 306 319 326 327 328
319 321 320 324 323 331 351 335 325 331 325 318 318 321 319 318 318 318 319 318 316 313 312 316 321 316 317 326 319 320 324 324 324 326 330 328 331 335 337 340 339 340 340 340 341 342 343 343 341 341 340 340 338 336 336 335 335 336 337 338 337 338 336 337 338 338 337 336 336 336 334 330 326 327 329 327 325 323 323 322 320 320 319 316 311 305 300 300 301 302 301 301 309 322 327 327 328
320 321 319 323 327 331 339 326 327 330 318 320 318 318 327 326 319 319 318 315 315 313 313 317 321 315 317 325 320 323 325 321 321 325 331 331 332 334 338 341 339 341 341 340 341 342 343 343 343 341 340 340 339 336 336 335 334 335 337 338 337 337 336 336 337 337 337 336 336 335 333 329 326 329 329 326 324 324 323 322 321 320 319 318 312 307 302 299 301 303 305 308 315 323 326 326 328
321 319 319 321 320 319 322 318 321 321 316 321 319 316 325 325 319 319 315 311 313 315 315 318 322 320 325 327 323 328 327 326 327 328 332 333 333 335 340 342 341 342 340 341 341 342 343 343 342 342 341 340 339 337 336 335 334 334 335 336 335 336 336 335 337 337 337 336 336 335 333 329 327 329 328 325 325 325 324 323 322 321 320 318 313 309 305 300 299 304 311 317 321 324 326 326 327
321 319 325 327 320 320 326 322 318 319 315 314 316 315 318 321 317 316 315 312 314 317 318 320 322 322 326 323 319 326 325 326 329 331 334 334 334 336 339 342 343 341 340 341 340 342 343 343 341 341 341 340 339 338 337 337 335 334 333 334 334 335 336 335 337 337 337 336 335 335 333 329 328 330 328 326 326 325 325 324 324 324 322 319 314 308 305 302 299 305 314 320 323 325 325 326 327
320 320 327 335 330 329 334 323 319 321 316 310 313 314 316 319 315 314 316 314 313 316 318 317 317 321 322 318 319 321 315 319 329 334 335 336 336 336 338 340 342 341 340 340 340 342 342 342 342 341 342 341 339 339 338 337 336 334 333 331 331 333 335 335 336 337 337 336 335 335 332 329 328 330 328 326 326 325 325 325 326 325 323 319 315 307 304 302 299 308 317 320 323 325 325 325 326
316 317 325 334 330 331 333 321 316 317 316 315 314 315 318 317 314 314 316 314 312 314 316 313 313 318 319 319 321 317 310 319 330 334 336 337 336 337 338 339 342 342 340 340 341 341 342 342 342 341 342 341 340 340 339 337 335 334 333 330 329 332 335 335 336 336 337 336 335 335 332 328 330 331 328 327 327 326 325 325 326 324 321 318 314 307 303 301 301 310 319 321 323 324 325 325 325
316 317 325 333 329 326 324 318 319 318 315 317 314 316 318 314 314 314 315 314 313 316 316 313 316 319 317 320 319 313 311 319 330 334 337 337 336 337 338 339 341 341 341 340 340 341 342 342 342 342 342 341 340 340 339 338 336 335 333 330 329 332 335 335 336 336 336 336 335 334 332 330 332 332 329 327 327 326 325 325 325 321 318 317 313 306 303 302 304 311 318 321 322 323 325 325 325
322 323 332 341 332 321 321 320 321 320 316 317 316 318 316 313 316 315 315 313 312 316 314 313 322 322 316 318 317 312 310 317 329 334 336 338 336 337 338 340 340 341 341 339 340 341 341 342 343 343 342 342 340 341 340 338 337 335 333 330 329 333 334 334 335 336 335 335 334 334 333 332 333 333 330 328 327 327 325 324 322 318 316 316 312 306 303 303 307 312 317 320 321 322 323 323 324
321 328 343 345 330 322 325 322 318 322 321 318 316 316 314 313 315 315 316 315 314 315 313 311 318 320 317 319 315 310 311 319 329 333 336 337 336 336 337 340 339 339 340 340 340 339 341 341 341 343 342 342 340 340 340 338 337 336 333 330 329 332 334 334 335 336 336 335 334 334 333 333 333 333 331 328 328 327 325 324 321 318 317 316 314 308 303 301 304 309 314 317 319 321 322 322 322
328 335 349 330 319 323 325 321 318 323 323 319 317 313 311 313 315 317 317 316 315 315 313 309 312 316 318 319 313 310 311 319 329 332 334 336 338 336 337 340 339 338 337 338 341 339 341 340 339 341 340 341 341 340 339 338 338 336 334 330 328 331 333 334 334 334 335 335 334 334 334 334 333 333 332 329 329 327 326 324 321 320 319 318 316 313 309 304 301 302 305 310 314 317 319 320 320
330 337 346 324 313 322 322 319 319 319 319 320 318 314 312 313 315 317 317 317 315 314 311 306 310 316 316 315 315 315 311 317 329 331 332 337 339 336 336 339 339 341 338 336 342 342 340 341 342 340 337 340 340 340 340 339 338 336 335 332 329 329 332 333 333 334 334 335 334 334 334 333 333 332 332 330 329 328 326 324 322 321 321 320 317 316 315 312 308 304 303 302 303 305 308 311 313
323 329 336 328 316 319 319 317 321 320 319 321 315 314 314 312 313 315 315 317 315 310 309 307 309 313 315 316 319 318 311 319 330 331 333 338 339 338 338 338 339 342 340 337 342 343 341 341 341 338 335 340 341 340 340 339 339 337 335 334 331 329 330 332 332 332 333 334 334 334 334 333 333 332 332 331 330 329 327 325 323 322 322 321 318 316 315 314 313 310 309 305 301 299 300 302 303
323 332 336 330 318 317 317 316 321 320 319 320 315 313 315 311 311 314 311 313 313 311 312 313 310 311 313 315 315 311 312 323 330 330 333 336 337 338 338 339 339 340 339 337 339 340 339 337 337 336 333 337 341 339 339 339 339 338 336 336 334 331 331 332 331 332 333 334 334 334 334 333 333 332 332 331 330 329 328 327 324 323 323 322 320 318 316 315 313 312 311 310 307 305 304 303 303
328 340 340 328 320 320 318 317 319 321 322 320 315 313 316 314 310 311 308 311 316 315 316 315 310 309 312 313 311 311 318 326 329 329 332 334 334 336 337 338 337 338 337 335 337 337 336 333 332 333 332 335 339 340 339 338 338 338 337 336 335 333 332 332 332 332 332 333 334 334 334 333 332 332 332 331 331 330 329 328 326 323 323 323 322 319 318 316 315 315 315 314 314 313 312 311 311
338 339 332 321 321 323 321 321 318 320 321 317 315 315 317 317 313 311 309 315 318 314 316 315 313 310 310 311 311 316 323 326 327 328 330 331 331 333 334 335 335 335 335 334 334 333 332 330 331 332 333 335 339 340 339 338 338 338 338 337 336 334 334 333 332 333 333 333 333 334 334 333 332 331 331 331 330 330 328 328 327 324 323 323 322 321 319 317 316 317 317 318 317 317 316 316 315
336 335 330 323 323 320 318 323 318 315 318 318 316 313 315 315 315 312 310 317 316 315 317 316 318 316 312 311 314 320 324 325 326 326 327 327 328 330 331 332 333 333 333 334 333 332 332 331 331 333 334 335 338 338 338 339 337 336 338 338 337 336 335 334 334 333 332 332 332 333 334 333 332 331 331 331 330 330 328 328 328 325 324 323 322 321 319 318 317 318 318 318 318 318 318 317 317
323 332 332 323 324 319 314 320 319 315 315 318 316 312 314 314 313 311 313 318 316 319 321 318 322 323 318 312 313 321 323 322 323 324 323 322 324 326 327 328 329 329 330 332 332 331 332 332 331 333 334 334 337 337 338 339 337 336 336 338 338 337 336 336 335 333 333 332 332 333 333 333 333 332 331 331 331 330 329 328 327 326 324 323 322 321 320 319 318 318 318 319 318 318 318 317 317
317 325 326 318 320 318 315 317 319 317 313 317 318 313 315 312 311 312 314 316 316 321 322 319 324 327 323 314 311 317 320 320 319 320 319 318 319 320 321 322 323 325 326 327 329 329 330 330 330 331 333 333 335 336 337 339 338 335 334 336 337 336 336 336 335 334 334 333 332 332 332 332 333 332 330 331 331 330 329 328 327 327 325 323 323 321 320 319 319 319 319 319 319 318 318 317 316
316 315 316 316 317 315 316 317 316 316 313 316 318 313 314 311 312 316 315 316 319 320 317 317 320 322 321 314 310 313 315 315 316 316 316 315 315 315 316 317 318 319 320 322 323 325 327 328 329 329 331 332 333 334 335 337 338 335 334 334 334 335 336 336 336 335 335 334 333 332 332 332 333 333 331 331 332 330 329 328 327 328 326 324 324 323 321 320 320 319 319 319 318 318 317 316 315
318 315 313 316 316 314 316 316 315 316 315 317 317 313 313 313 313 315 314 315 316 312 311 312 311 312 313 311 309 313 313 311 312 313 313 314 314 314 314 314 314 314 315 317 317 320 321 324 326 328 330 330 330 332 334 335 335 334 335 334 332 334 334 334 336 336 336 335 334 333 331 332 333 334 333 332 332 330 330 329 328 327 327 325 324 324 322 321 321 320 319 319 318 318 317 316 315
323 318 315 315 314 315 315 315 316 316 317 317 315 312 313 317 314 311 313 317 315 309 306 305 305 306 309 311 311 310 310 309 311 312 312 313 313 313 313 313 313 313 313 313 313 314 316 318 321 325 329 329 329 330 332 333 333 333 335 336 334 335 333 333 335 335 335 334 333 333 331 332 333 332 332 332 331 329 329 329 328 327 328 327 325 325 323 322 321 321 320 319 318 317 316 315 314
323 317 317 316 314 317 315 315 317 316 315 313 313 314 315 316 312 311 317 319 315 310 307 305 306 308 311 316 314 306 307 309 310 311 311 312 312 312 313 313 312 311 311 311 312 313 313 314 316 320 325 328 329 330 331 334 334 333 333 335 335 335 334 333 334 334 333 333 332 332 332 332 331 330 330 330 329 328 328 329 328 327 327 328 327 326 324 323 322 321 320 319 318 317 315 314 313
318 317 319 317 316 318 315 315 318 316 315 313 313 317 316 313 311 314 320 317 312 311 311 311 312 315 317 318 312 305 306 307 309 310 311 312 312 311 312 311 311 310 310 311 313 313 313 314 314 316 321 325 328 329 331 333 334 333 333 334 333 333 333 333 333 333 333 333 332 331 331 331 330 330 329 328 327 327 328 328 328 327 327 327 327 326 324 322 321 320 320 319 318 317 315 313 313
316 319 318 317 319 319 315 315 317 316 315 314 314 317 316 312 312 316 318 312 310 315 316 312 315 319 317 317 311 306 306 307 309 310 311 311 311 310 310 310 310 310 311 313 314 314 316 316 315 316 319 323 327 329 330 332 332 332 332 332 332 332 332 332 332 332 332 331 332 331 330 330 330 329 328 327 327 327 327 328 327 326 326 326 326 325 322 321 320 320 319 318 317 316 313 311 310
314 318 316 318 322 319 315 315 315 313 313 315 314 315 315 312 313 318 315 309 310 319 319 312 316 318 314 315 311 306 305 307 308 309 311 311 310 309 309 310 311 311 312 314 315 316 318 318 318 318 320 324 327 330 330 331 331 330 330 330 331 330 330 331 331 331 331 330 331 331 330 329 328 328 328 327 327 328 327 327 325 325 326 324 324 323 321 320 320 319 318 317 315 314 311 309 308
314 317 317 321 327 321 314 314 313 312 314 316 314 314 317 314 315 317 312 307 310 316 319 314 315 316 313 313 311 306 305 305 306 308 310 311 311 310 309 311 311 312 313 314 315 317 319 319 320 320 321 325 327 330 330 330 330 329 329 329 328 328 329 330 330 329 329 329 329 330 329 328 327 327 327 326 327 327 326 325 325 324 323 322 322 321 320 319 319 318 317 315 313 311 309 307 306
316 316 318 324 328 323 314 312 312 312 314 315 313 317 326 325 318 315 310 309 312 315 318 315 314 314 313 311 311 309 304 303 305 307 310 310 310 309 310 311 311 313 314 315 316 317 319 319 320 321 323 325 326 328 329 328 329 328 327 327 327 327 327 327 327 327 327 327 327 328 327 326 326 326 325 325 325 325 324 324 323 322 321 321 320 320 320 319 318 317 314 313 310 309 307 305 304
320 313 323 328 319 323 320 314 314 312 313 313 313 318 326 329 322 314 309 309 313 317 317 314 314 314 312 311 311 311 305 303 306 307 309 310 309 309 310 311 312 313 314 315 316 316 319 320 321 322 323 324 325 327 327 326 328 328 327 326 326 326 325 325 324 324 325 325 325 325 325 325 325 324 324 324 324 323 323 322 321 321 320 320 320 319 319 317 316 314 311 310 308 306 305 303 303
327 313 326 330 317 329 330 315 315 315 312 311 313 319 322 322 319 312 308 309 312 316 316 312 314 313 312 311 309 310 306 302 304 306 309 310 309 309 310 312 313 313 313 315 316 316 318 320 320 321 321 322 324 324 324 324 326 326 324 324 326 326 324 324 323 323 323 323 323 323 323 323 323 323 323 323 322 322 320 319 318 316 317 318 317 316 314 312 311 310 308 308 307 305 303 302 301
332 317 323 329 320 328 327 315 315 315 313 312 312 319 323 321 317 311 307 309 311 314 315 313 313 312 311 310 308 309 308 305 304 305 308 309 310 310 310 312 313 313 313 314 315 315 317 317 318 320 319 320 321 321 321 323 324 323 322 323 324 323 322 323 322 322 322 322 322 321 321 321 321 321 320 320 319 317 315 314 311 308 310 310 309 308 307 307 307 307 306 306 306 304 302 300 299
328 319 320 327 323 322 323 321 316 311 313 314 313 316 319 320 317 313 310 309 311 315 316 314 311 310 309 309 308 308 308 308 305 304 307 309 310 311 311 312 313 313 313 314 315 315 316 316 316 319 318 317 317 318 320 321 321 320 320 320 321 320 321 321 321 321 321 321 321 320 320 319 319 319 317 316 315 312 309 306 302 301 302 303 302 302 303 305 306 306 305 304 304 303 301 300 298
325 324 324 324 321 318 323 327 317 311 314 315 315 315 316 317 315 315 314 310 312 317 314 311 310 309 309 308 308 307 307 308 305 304 307 309 310 310 311 312 312 313 313 313 315 314 315 315 314 316 315 314 314 315 317 317 316 317 317 318 319 319 319 319 318 318 318 319 320 319 319 318 317 315 313 312 310 306 303 301 299 299 300 301 301 302 303 305 305 305 304 303 302 302 300 299 298
326 333 336 330 324 322 325 327 320 313 313 316 317 316 317 316 315 315 315 311 312 314 311 309 310 309 309 308 307 306 306 306 303 304 308 309 310 310 311 312 311 313 313 313 314 314 314 314 313 313 313 312 312 312 315 314 313 313 313 315 317 315 315 315 314 316 317 319 319 318 317 316 315 312 311 311 308 304 301 299 298 298 298 299 301 303 305 305 305 304 304 303 302 301 299 299 298
326 331 333 328 324 326 327 324 320 314 313 320 319 315 316 315 315 314 313 312 313 313 312 310 309 308 308 308 307 307 306 304 302 304 307 308 309 311 311 311 311 311 311 312 313 313 312 312 312 312 312 312 312 311 312 312 312 312 311 311 313 313 313 312 312 315 317 318 318 316 315 314 313 312 312 311 308 304 300 297 296 295 296 297 300 304 305 305 305 305 304 302 302 300 298 297 297
327 326 323 324 324 326 324 318 318 315 315 322 321 316 316 314 314 313 312 313 314 314 314 312 310 308 308 308 307 307 305 303 302 302 304 305 307 310 310 310 310 310 310 311 312 312 311 310 310 311 310 310 311 311 311 312 313 313 312 311 312 312 312 312 313 315 317 316 315 314 312 312 311 311 309 305 302 299 296 295 294 294 295 295 298 303 305 304 304 304 303 301 300 299 297 295 295
328 326 319 323 325 323 322 319 317 315 314 323 325 319 316 315 315 314 313 313 311 311 312 312 311 310 308 308 307 307 307 305 303 302 302 304 306 308 310 309 309 310 310 310 310 309 309 308 309 308 308 308 309 310 310 311 310 312 313 311 311 310 309 312 314 314 314 313 312 311 310 309 308 305 301 298 297 295 295 294 294 293 294 293 295 299 302 303 303 303 302 301 300 298 296 295 296
325 325 322 326 325 321 322 321 318 316 314 319 325 320 316 316 316 316 315 315 314 312 312 311 310 311 310 308 308 307 307 306 305 304 301 302 305 307 309 309 308 309 309 308 308 307 306 307 308 308 307 307 308 309 310 309 309 311 311 309 310 310 308 310 312 310 309 309 308 308 306 304 302 298 295 294 294 294 294 294 293 293 293 292 293 294 296 297 298 298 298 299 299 297 293 292 293
324 323 323 327 326 323 323 322 321 321 318 318 322 323 323 323 321 319 319 319 319 313 313 313 311 309 309 308 309 308 307 305 305 304 302 301 304 307 308 309 308 308 308 308 307 306 306 305 306 308 307 307 308 309 310 309 310 311 308 304 305 305 303 305 307 304 303 305 304 303 301 297 295 294 293 293 293 293 293 293 293 293 292 292 293 292 292 292 292 293 293 293 294 293 291 289 289
327 324 323 323 324 323 321 321 322 325 328 320 317 324 334 334 329 327 326 328 329 319 316 319 314 310 309 308 309 309 307 305 304 303 302 301 304 307 308 308 307 307 307 307 307 307 306 304 304 306 307 306 306 308 309 309 310 311 309 306 305 302 297 297 301 300 299 300 299 297 295 292 292 292 292 293 293 293 292 292 292 292 292 292 292 292 292 291 291 291 291 291 291 291 291 289 288
326 323 320 318 318 319 319 321 322 327 331 318 315 326 331 328 326 328 331 334 332 322 320 321 316 313 312 309 309 309 307 305 304 303 301 301 305 307 307 307 307 307 306 306 306 306 305 304 303 304 305 305 304 305 307 308 308 308 308 309 309 306 300 295 295 296 296 295 294 292 291 291 291 292 291 292 292 292 292 292 292 292 292 292 292 292 291 291 291 290 290 291 290 290 291 290 288
328 319 319 319 317 319 321 320 321 326 327 319 321 329 326 324 325 327 328 327 326 324 324 322 317 318 316 310 308 308 306 304 304 303 302 302 305 307 307 307 307 306 306 305 305 305 304 303 302 303 304 304 304 305 305 306 307 307 307 306 303 303 303 296 291 292 292 291 291 290 291 290 290 291 291 291 291 291 292 292 292 292 291 291 291 291 291 290 290 290 290 290 289 289 290 290 288
325 315 317 320 319 323 325 326 326 324 324 323 323 323 324 329 330 326 322 322 326 329 326 322 322 326 322 313 308 306 305 303 303 303 302 301 304 307 307 306 306 306 306 306 304 303 303 303 302 302 302 303 303 304 305 305 306 307 307 305 300 296 297 293 290 291 290 290 291 290 290 290 290 290 290 290 291 291 291 291 291 291 291 291 291 291 290 290 290 290 289 289 289 289 288 288 287
317 312 316 319 321 324 326 330 330 326 326 327 325 323 324 327 329 327 322 324 329 326 323 322 325 328 322 313 307 306 304 303 303 302 300 301 304 307 307 306 306 305 305 306 304 303 303 303 301 301 301 302 303 303 304 303 305 306 305 305 303 296 292 291 290 290 290 290 290 289 289 289 289 290 290 290 290 290 290 290 290 290 290 290 290 290 290 289 289 289 289 288 288 288 287 287 287
314 319 325 325 326 326 328 329 326 327 329 328 326 325 323 324 330 330 325 326 327 323 327 329 325 327 324 313 307 306 304 303 303 302 299 300 303 306 306 305 305 305 304 304 304 303 302 301 300 300 300 301 302 301 301 301 302 305 305 305 305 298 292 290 290 289 289 289 289 289 289 289 289 289 289 289 290 290 290 290 290 290 290 290 290 289 289 289 289 288 288 288 287 287 287 286 286
319 331 331 327 329 327 328 328 325 329 329 324 320 320 320 323 328 330 327 325 323 321 328 332 329 330 330 318 307 304 303 302 302 302 300 299 301 304 305 304 304 303 303 302 302 302 301 300 299 299 299 300 301 299 298 299 299 301 304 304 304 300 294 291 291 290 289 289 289 289 288 289 288 289 289 289 289 289 289 289 290 290 290 290 289 289 289 289 288 288 287 287 287 286 286 285 285
322 331 327 326 329 327 328 328 326 327 324 316 315 318 320 321 323 324 325 326 326 321 319 324 328 328 329 321 308 303 302 301 301 301 300 299 300 302 303 304 303 302 302 301 301 301 300 300 299 299 300 301 301 298 297 299 299 300 302 302 301 298 294 292 291 290 289 289 289 289 288 288 288 288 288 288 288 289 289 289 289 289 289 289 289 288 288 288 288 287 287 286 286 285 285 285 284
322 326 326 327 328 330 337 332 323 322 321 314 313 318 321 322 323 321 320 320 324 322 316 317 320 319 320 317 308 302 301 301 301 301 300 299 299 301 303 304 303 301 301 300 301 301 300 300 299 300 300 300 300 297 296 297 298 299 300 299 298 296 293 291 291 290 289 289 289 289 289 289 289 288 288 288 288 288 289 289 289 289 289 288 288 288 287 287 287 287 286 286 285 285 284 284 284
320 323 323 326 329 334 339 336 328 325 325 318 314 319 327 330 326 320 318 320 322 322 318 314 314 312 310 309 305 303 301 300 300 300 300 299 299 301 303 303 303 301 300 299 299 300 300 300 300 300 298 297 298 296 294 294 295 296 296 296 295 294 292 291 291 290 290 289 289 289 289 289 289 288 288 288 288 288 289 289 288 288 288 287 287 287 287 286 286 286 286 285 285 284 284 284 284
319 320 321 324 326 329 325 322 322 323 325 323 319 322 327 327 323 318 318 321 322 321 317 315 316 311 307 309 307 303 301 300 300 300 299 298 298 300 302 303 303 301 300 299 298 299 299 299 299 300 299 298 297 295 293 293 294 294 294 293 293 292 291 291 290 290 289 289 289 289 289 289 288 288 288 288 288 288 289 288 288 288 287 287 287 287 286 286 286 286 285 285 284 284 284 284 283
318 319 323 320 318 327 327 317 313 315 320 325 322 324 326 323 323 320 318 322 323 320 319 319 318 313 311 313 308 303 301 299 299 300 299 298 297 299 301 302 302 301 300 298 298 299 300 300 299 298 297 296 295 294 293 293 293 294 293 292 292 291 290 290 290 290 289 289 289 289 289 288 288 288 288 288 288 288 288 288 288 287 287 287 287 286 286 286 286 285 285 285 284 284 283 283 283
321 323 324 317 314 325 328 322 322 322 325 327 323 324 326 323 323 321 317 319 321 321 323 321 316 315 317 313 306 302 301 299 299 299 298 297 297 298 299 301 301 301 300 299 298 299 299 300 299 297 296 295 293 293 293 293 294 293 292 291 291 290 290 290 290 290 289 289 288 288 288 288 288 288 288 288 288 288 288 288 287 287 287 287 286 286 286 286 285 285 285 284 284 283 283 283 282
319 323 321 320 324 327 323 324 329 329 328 330 326 322 321 321 323 323 319 322 324 321 321 319 318 320 317 310 306 303 300 300 299 299 298 297 296 297 298 299 300 300 300 299 299 298 297 297 298 298 298 298 296 293 292 293 293 293 292 291 290 290 289 290 290 290 289 289 289 288 288 288 288 288 288 288 288 288 287 287 287 287 287 286 286 286 286 285 285 285 285 284 284 283 283 283 282
315 317 315 319 325 325 323 323 325 327 327 329 328 323 322 322 323 325 322 324 329 325 321 321 319 319 316 310 307 304 301 300 299 298 298 297 296 297 297 298 299 299 299 299 298 297 296 295 295 295 295 295 294 293 292 292 292 292 291 290 289 289 289 289 290 290 289 289 289 289 288 288 288 288 288 288 288 287 287 287 287 287 287 286 286 286 285 285 285 284 284 284 284 283 283 282 282
317 319 318 319 319 319 323 321 320 326 329 330 330 325 324 326 324 326 324 323 326 326 326 327 321 316 316 312 307 304 301 299 298 298 298 296 296 296 297 298 298 298 298 298 297 296 296 295 294 293 293 292 291 291 292 292 291 291 290 289 289 289 289 289 289 289 289 289 289 288 288 288 288 288 288 288 287 287 287 287 287 287 286 286 286 286 285 285 285 284 284 284 283 283 282 282 282
318 319 319 319 318 319 323 321 319 322 324 327 328 324 325 328 323 323 324 322 321 320 321 327 326 321 318 313 306 303 302 300 298 298 297 296 295 295 296 297 297 297 297 296 296 295 295 294 293 292 292 291 291 291 292 292 291 290 289 289 289 289 289 289 289 289 289 288 288 288 288 288 288 288 288 287 287 287 287 286 286 286 286 286 286 286 285 285 285 284 284 283 283 283 282 282 281
Wind_Speed
7 6 5 3 4 1 3 5 3 2 4 3 2 1 2 2 1 1 1 2 1 2 2 1 2 2 2 4 5 5 4 3 4 3 1 3 2 2 5 5 3 5 11 13 14 15 15 16 16 14 13 11 9 8 10 11 12 10 10 11 11 11 11 11 11 12 12 13 14 14 13 13 15 17 18 18 18 18 19 19 19 19 19 19 18 19 18 17 16 15 14 14 14 13 14 15 16
6 5 4 2 4 2 1 4 3 3 5 2 2 2 3 2 1 3 2 0 3 2 0 3 6 6 5 5 6 4 3 0 3 3 1 1 2 2 2 5 6 6 11 13 14 15 14 15 17 16 14 13 10 9 9 11 12 10 10 10 11 11 11 11 11 11 11 12 12 13 12 13 14 17 18 17 18 18 18 19 19 19 19 18 18 18 18 18 17 16 15 15 15 15 15 16 16
5 3 3 2 4 4 2 4 3 2 5 2 3 4 2 1 3 6 5 3 5 4 1 2 5 4 5 5 3 3 2 1 1 0 1 2 1 2 2 3 8 9 11 12 13 14 14 13 16 17 15 15 12 10 10 11 12 11 11 10 10 10 10 10 10 11 11 11 11 12 12 12 14 16 17 16 17 17 18 19 19 18 18 18 18 18 18 17 17 17 16 16 16 16 16 16 16
4 3 2 2 3 4 4 4 2 4 3 2 2 4 1 2 6 6 5 5 5 2 1 2 3 2 4 4 2 1 0 1 1 1 1 3 2 1 2 5 9 11 10 11 12 12 12 11 13 16 15 14 13 11 10 10 11 12 13 11 10 10 10 10 10 10 10 10 11 12 11 11 13 15 15 16 16 17 18 18 19 18 18 18 18 17 17 17 17 17 16 17 17 18 17 16 16
4 6 1 3 3 2 3 3 3 4 2 4 2 4 4 5 6 4 5 4 4 2 3 2 2 2 3 2 0 1 2 2 2 2 2 3 1 0 1 5 8 9 10 11 11 9 10 11 11 13 13 13 12 11 10 10 11 12 13 12 11 10 9 10 10 9 10 10 11 11 10 10 13 14 15 15 16 17 17 18 19 18 18 17 17 17 17 17 16 17 17 17 18 19 18 17 16
5 8 7 6 4 1 3 3 3 2 4 5 3 4 6 6 5 4 3 3 1 3 3 1 2 2 2 1 1 2 1 1 3 4 4 2 1 2 3 5 7 7 9 11 11 9 9 10 11 12 12 12 11 11 10 9 10 11 11 11 12 11 9 10 10 9 9 10 10 10 9 10 12 13 14 15 16 16 17 18 18 18 18 17 17 17 16 16 16 16 17 18 19 19 17 17 17
3 3 6 8 4 2 4 3 3 1 2 4 2 4 6 6 4 2 1 1 2 3 2 1 2 4 1 1 0 1 0 1 3 3 5 3 2 3 5 5 6 6 8 11 11 9 8 7 8 11 11 11 11 10 10 9 9 10 10 10 11 11 10 10 9 8 9 9 9 8 8 9 11 12 14 15 15 16 17 17 17 17 17 17 17 17 16 16 16 17 17 18 19 18 17 17 16
3 1 1 5 3 4 4 3 2 2 1 3 3 4 5 5 4 2 1 0 1 2 2 1 2 3 0 1 1 3 2 3 3 3 4 2 3 3 5 6 5 6 8 11 10 8 7 5 5 9 11 10 10 10 10 9 8 8 8 10 11 10 10 11 9 8 8 8 8 7 8 9 10 12 13 13 14 16 17 17 17 16 16 17 17 17 17 16 16 17 17 18 19 18 17 17 16
6 3 1 4 3 3 3 2 0 2 2 4 3 4 3 4 4 3 1 1 1 1 1 3 1 1 1 2 1 3 3 3 1 2 4 1 4 4 5 6 5 5 6 9 11 8 7 4 3 6 10 10 10 10 9 9 8 7 7 9 11 11 11 10 9 8 7 7 7 7 7 8 9 11 12 13 14 16 17 16 16 16 16 17 17 17 17 17 17 17 18 18 19 18 18 17 17
5 3 2 4 3 3 3 1 1 1 3 4 4 5 2 4 3 2 2 3 1 2 1 2 2 2 2 2 2 1 2 2 1 1 2 1 5 5 6 6 4 3 4 7 10 9 7 6 5 5 6 9 10 9 9 9 8 7 7 9 11 11 10 9 9 8 7 7 7 6 7 8 9 10 11 12 14 15 17 16 17 17 17 17 17 18 17 17 18 18 18 18 18 19 19 18 17
4 4 3 4 4 3 2 2 3 3 4 5 4 5 3 5 4 2 1 3 0 2 1 1 2 3 3 0 3 1 1 2 1 2 1 2 6 8 7 7 6 3 3 5 8 8 6 6 6 7 5 7 10 9 9 9 7 7 6 8 11 11 9 8 8 7 7 7 6 6 6 7 8 9 10 12 14 15 16 16 17 18 19 18 18 18 18 19 19 19 19 19 19 19 18 18 17
3 3 4 5 3 3 3 4 3 4 5 4 1 3 2 6 4 2 2 4 1 2 2 1 2 5 3 2 3 1 0 0 2 3 1 1 4 9 10 9 9 7 5 4 7 7 6 4 5 7 5 5 8 8 9 9 7 7 5 7 11 11 9 8 7 6 6 6 6 6 6 7 7 8 9 11 13 14 15 16 18 18 19 20 19 19 18 18 18 19 19 19 18 18 17 17 16
4 2 5 4 3 3 3 5 2 2 5 3 3 2 3 5 3 6 6 4 2 2 1 3 2 4 2 3 3 3 1 2 4 4 4 3 3 8 11 11 11 9 8 6 7 10 9 7 6 6 5 5 7 8 9 9 8 8 6 7 9 10 9 8 7 5 4 5 5 6 6 6 6 7 8 10 12 12 14 16 17 18 19 21 21 21 19 18 18 18 18 17 17 16 16 15 15
3 3 5 3 2 3 4 3 1 2 3 6 3 2 1 1 3 5 7 5 1 3 1 2 3 3 2 2 3 4 3 4 6 6 5 5 4 6 10 12 11 10 10 9 9 12 12 11 10 8 5 5 7 7 8 10 9 9 8 7 9 10 9 8 6 5 4 5 5 6 6 6 6 6 7 9 10 11 13 15 16 17 18 20 22 22 21 20 19 19 18 18 17 17 16 16 15
4 3 5 4 2 2 3 2 2 5 4 5 2 0 2 1 2 3 4 6 3 3 0 2 1 2 3 3 4 4 4 7 7 7 8 8 6 8 10 12 11 9 11 11 11 11 10 10 11 11 9 8 8 8 8 10 10 9 9 8 8 9 9 8 6 5 4 4 5 6 6 6 5 5 6 7 9 10 12 13 15 16 16 19 21 22 22 22 22 21 20 19 19 18 18 18 17
3 4 5 4 2 2 4 2 3 3 5 5 1 1 3 1 2 2 3 4 2 1 2 0 2 1 3 4 4 2 6 9 8 9 10 10 9 9 10 12 11 9 9 8 10 9 6 5 6 9 12 10 9 10 10 10 10 10 9 8 8 8 8 7 6 6 5 5 6 6 7 7 6 5 6 6 7 8 10 12 13 13 14 17 20 21 22 23 24 24 24 23 21 21 21 21 20
3 4 5 3 3 4 5 4 4 4 5 5 3 1 5 2 1 2 2 4 4 1 4 1 2 1 3 3 2 1 8 10 10 11 11 11 11 9 8 9 11 11 9 5 5 7 6 5 4 5 9 11 11 12 10 10 10 10 9 8 8 8 8 8 7 7 6 6 6 7 7 7 7 6 6 6 6 7 9 9 10 11 12 15 19 20 21 22 24 25 25 25 24 23 23 23 22
5 4 4 3 4 4 6 7 7 4 3 5 4 2 7 3 2 2 0 5 4 1 3 2 4 2 1 1 0 5 12 12 11 12 12 11 10 10 8 7 7 9 10 10 8 9 10 8 6 7 8 9 9 12 11 11 13 12 10 9 9 8 8 8 8 8 7 7 7 8 8 8 8 7 7 7 6 7 8 7 7 9 10 13 16 19 19 21 23 24 24 24 24 24 23 23 23
4 4 4 3 6 5 6 8 7 3 2 5 3 1 5 5 3 2 1 3 4 1 3 4 5 4 1 1 3 9 13 12 11 12 12 10 9 10 10 9 7 6 7 9 9 9 10 9 8 8 8 8 8 11 13 13 14 13 11 11 11 10 9 9 8 8 7 7 8 9 9 9 9 8 7 7 7 8 7 5 7 8 9 11 14 17 18 20 21 22 22 23 23 23 23 23 22
2 4 4 4 6 3 4 7 7 4 3 6 3 1 2 3 2 1 2 1 1 3 5 1 3 7 5 2 5 10 12 11 11 11 12 10 9 9 9 9 9 8 8 9 10 10 11 12 11 10 9 7 7 10 12 12 13 11 11 12 13 13 12 11 10 8 8 8 9 9 10 10 10 9 8 8 8 8 7 5 6 7 7 9 12 15 17 18 19 20 20 20 21 21 22 22 22
2 4 3 5 4 1 4 6 6 4 4 6 4 4 1 3 2 1 5 3 4 7 7 7 8 8 8 5 5 10 11 10 9 10 11 10 9 8 8 8 9 9 10 11 13 13 13 14 14 12 11 8 7 9 11 12 14 12 12 12 11 14 15 14 12 10 10 10 9 10 11 11 11 11 9 8 10 10 8 6 6 6 7 7 9 12 14 16 17 18 18 18 19 19 20 21 21
3 2 3 4 3 1 3 5 5 4 4 5 5 4 2 1 1 3 8 5 6 6 6 8 8 8 9 8 7 9 10 10 9 9 9 9 8 7 6 7 7 8 10 11 13 14 15 16 16 14 13 12 10 11 12 11 13 12 13 13 11 12 13 14 13 11 11 10 10 11 12 12 13 13 11 10 12 13 10 8 8 8 8 8 7 9 11 13 14 14 15 17 18 18 20 20 21
3 1 1 3 3 0 1 3 4 5 6 5 4 3 2 3 2 2 7 8 7 5 5 7 7 7 11 11 10 8 8 9 9 9 9 8 7 6 6 5 6 7 9 11 12 14 15 16 18 17 15 14 13 13 15 13 11 13 14 15 14 14 13 13 12 12 12 12 12 14 13 13 15 16 15 14 16 17 14 11 11 9 8 10 8 8 10 11 11 12 13 15 17 18 20 20 21
6 2 1 1 3 2 2 2 3 4 5 4 3 2 2 3 3 0 4 9 4 3 3 3 5 9 13 10 8 8 8 9 9 8 8 8 7 6 6 5 6 8 9 10 12 14 15 16 17 18 16 15 14 14 15 14 13 15 14 14 17 17 14 13 13 13 12 10 11 14 15 15 16 16 16 16 17 18 18 16 13 10 9 10 10 9 9 10 9 10 12 14 16 18 20 20 21
5 3 2 1 1 4 3 3 3 2 1 1 3 2 3 5 3 1 7 9 1 1 3 6 8 10 9 8 7 7 8 8 8 8 7 7 6 6 6 6 7 8 8 8 9 11 12 14 16 16 15 15 15 15 13 13 15 16 15 16 16 15 14 15 14 12 10 7 7 10 14 16 16 15 15 15 15 17 17 17 14 12 11 10 12 11 11 11 11 12 13 14 17 19 20 20 21
1 3 2 1 2 5 2 2 2 2 1 2 3 2 5 2 1 4 8 6 2 4 6 5 7 7 6 5 6 7 8 8 9 8 7 6 6 6 5 5 6 6 5 5 6 8 8 10 12 14 15 14 15 15 14 11 13 14 14 15 14 13 14 15 13 9 8 8 7 7 10 13 13 12 12 13 15 15 15 15 13 13 13 11 10 12 12 14 15 16 15 15 17 18 20 20 20
2 4 3 3 2 4 2 1 2 2 2 1 4 4 5 4 2 5 5 3 4 6 6 3 5 6 5 4 4 6 7 9 9 8 8 6 6 5 4 3 3 4 3 2 5 5 5 6 6 10 13 14 14 17 16 12 11 12 12 13 14 14 14 12 9 9 9 10 10 8 8 8 9 9 11 13 15 14 13 13 11 10 11 9 8 10 12 14 16 16 16 17 17 19 21 21 21
2 4 3 4 5 3 1 1 2 0 1 4 6 3 4 4 1 7 4 3 4 6 6 3 4 4 3 4 3 5 6 8 8 8 9 8 6 5 3 3 3 3 2 2 4 3 3 2 4 8 13 14 15 18 18 14 10 11 13 14 15 15 12 11 11 12 13 13 12 9 8 8 9 10 12 14 13 12 11 11 9 8 8 8 8 10 13 15 15 16 16 17 18 20 22 22 22
1 3 2 5 8 3 1 0 1 2 2 4 6 2 4 3 7 8 3 3 4 5 6 4 4 3 2 3 3 4 6 7 8 9 9 7 7 5 3 3 4 4 3 3 4 4 4 5 7 10 13 15 16 18 18 17 14 13 15 15 16 15 14 15 16 17 15 15 14 11 11 12 12 11 13 14 11 10 11 11 11 10 10 10 11 12 15 16 15 17 17 18 20 21 23 24 24
1 3 3 3 7 5 2 2 1 3 2 2 4 2 6 8 11 7 1 6 6 5 6 5 5 4 3 4 3 4 6 7 9 10 9 7 7 6 4 5 5 5 4 4 5 6 7 7 9 11 13 15 17 19 19 19 18 16 16 16 16 16 17 18 18 18 17 16 16 15 15 15 13 12 13 13 12 12 13 13 13 14 14 13 14 15 15 15 15 17 18 20 22 23 25 25 25
1 2 2 3 2 4 5 2 3 5 2 2 4 3 6 9 10 4 2 6 7 7 7 5 6 5 4 4 4 5 6 9 10 10 10 8 7 6 6 6 5 5 5 6 6 7 9 10 11 13 14 16 17 19 21 21 20 17 18 19 18 17 18 18 17 18 17 16 16 17 17 15 14 13 13 12 13 14 14 15 16 16 16 14 15 15 14 14 15 17 20 22 24 25 27 27 26
3 1 3 3 1 5 8 2 5 4 1 2 4 3 7 9 9 5 2 5 6 7 7 6 7 6 5 5 5 5 5 8 10 10 11 9 7 7 7 7 6 6 6 7 7 8 11 12 14 14 15 18 18 20 22 23 22 20 22 23 20 18 18 18 18 18 18 16 14 15 16 16 15 14 14 13 14 16 17 17 17 17 16 14 15 15 15 16 18 21 22 22 25 27 28 29 28
4 1 2 2 1 3 6 2 2 1 1 1 1 3 4 4 5 5 0 6 5 6 7 7 8 7 6 5 5 5 5 6 8 11 12 10 9 8 8 8 8 8 8 8 9 10 13 15 15 15 16 19 20 22 23 23 23 23 22 22 21 19 18 18 18 18 18 17 15 15 15 16 16 15 15 15 16 18 19 19 19 18 17 16 17 16 17 19 21 24 25 24 25 28 29 30 29
4 2 1 3 2 2 3 3 3 1 2 2 2 3 6 7 6 3 1 6 6 7 10 9 7 7 6 5 6 6 6 6 7 12 14 11 11 10 9 9 9 10 10 9 10 11 13 15 16 16 17 19 20 21 21 22 23 23 22 21 20 18 17 18 19 18 18 18 17 16 15 16 17 16 17 18 19 20 21 21 21 20 18 17 18 18 19 22 23 25 27 26 26 28 29 30 29
3 2 1 2 2 3 4 4 2 1 1 3 3 4 10 13 11 6 5 6 7 10 10 7 7 7 7 7 7 7 7 8 9 14 16 14 12 11 10 10 10 11 11 11 11 12 13 16 17 17 18 20 21 21 21 23 24 24 24 23 21 20 20 20 20 20 19 18 16 16 16 16 17 18 20 20 21 22 23 22 22 20 18 18 19 21 23 25 25 25 27 28 27 28 28 29 28
6 5 4 4 3 3 5 5 5 2 1 4 6 7 10 12 12 9 5 6 7 10 8 7 7 7 7 8 7 8 9 9 10 15 17 16 14 13 12 12 11 13 13 12 13 13 14 17 18 19 19 20 22 23 23 24 25 25 25 24 23 22 22 21 20 20 20 18 16 17 18 18 19 21 22 21 22 23 23 22 22 21 20 20 22 24 26 26 25 26 27 27 28 28 28 27 26
6 5 4 4 3 4 5 3 5 2 2 6 7 8 10 10 12 12 4 5 7 10 10 10 9 9 9 9 9 10 9 7 10 16 17 17 15 14 14 13 13 14 14 14 14 14 16 18 20 21 21 21 22 24 24 24 25 25 24 23 23 22 21 22 22 21 19 19 18 18 19 20 21 22 22 21 22 22 23 23 23 22 22 22 23 25 26 25 25 25 26 27 27 28 27 24 23
5 5 3 1 3 5 6 2 4 2 2 5 4 5 11 10 11 13 6 5 9 11 12 13 13 11 9 10 11 10 6 4 8 13 16 18 16 16 16 15 15 15 15 16 16 17 17 18 20 21 22 23 23 23 24 23 23 24 24 25 25 24 23 23 24 22 20 20 20 20 21 21 22 22 22 22 23 23 24 24 23 23 22 23 24 25 25 24 24 24 24 25 25 25 23 20 19
4 3 3 2 3 4 6 3 4 2 2 4 5 5 9 10 10 13 12 10 10 11 13 13 12 11 11 11 11 9 7 6 7 10 15 18 18 18 18 17 17 17 17 17 17 18 18 19 20 21 22 23 23 23 23 23 23 23 24 26 27 27 25 23 23 23 22 22 23 22 22 23 23 23 23 23 23 24 24 24 24 24 23 23 24 25 24 23 23 21 20 21 22 21 18 14 12
2 4 3 3 3 1 4 4 4 3 1 2 5 7 9 8 9 13 13 10 9 10 11 10 9 11 12 11 10 10 10 10 9 9 12 17 18 18 19 19 18 17 18 19 19 19 19 20 21 22 23 23 24 23 22 24 25 24 25 27 26 25 25 23 22 23 24 24 24 24 24 24 24 24 25 24 24 25 24 24 24 24 24 23 23 24 24 22 21 19 17 17 18 19 17 12 7
3 4 5 4 4 5 5 4 4 3 3 3 4 7 8 5 7 10 7 4 7 9 8 11 11 10 9 6 7 10 11 11 11 10 11 15 18 19 20 20 19 18 19 20 21 21 21 21 22 23 24 24 24 23 23 26 27 27 28 28 26 25 25 24 24 24 25 25 26 26 26 26 26 26 26 25 24 24 23 23 23 24 24 23 22 23 23 22 20 18 16 15 15 16 18 18 14
4 4 9 9 7 5 3 4 5 4 4 4 4 4 7 4 4 9 6 4 7 5 4 11 12 7 6 7 7 8 9 9 11 11 13 16 18 19 19 20 20 20 20 21 22 22 23 23 23 24 24 24 24 24 25 27 28 29 30 29 28 29 27 24 26 27 27 28 29 29 29 28 27 26 25 24 23 23 23 23 22 22 22 21 21 21 22 21 19 17 15 14 14 14 16 19 19
3 4 7 8 5 4 2 1 2 1 4 3 3 1 6 6 4 8 6 6 10 8 7 12 10 5 7 8 7 7 8 8 8 10 12 15 18 19 20 21 22 22 21 21 22 23 24 24 24 24 24 25 25 26 27 27 28 29 29 29 29 31 30 27 28 30 30 31 31 31 30 29 27 25 25 24 23 23 22 22 21 21 21 21 20 20 21 20 19 18 16 15 15 13 12 17 19
3 4 4 6 6 5 4 4 2 3 3 4 2 4 3 8 6 6 4 5 10 12 13 13 7 6 8 8 8 8 9 9 9 9 11 14 19 20 21 22 23 23 23 23 23 23 24 24 24 24 24 24 24 25 26 27 28 28 28 28 29 31 32 32 32 32 32 32 32 31 30 29 27 26 25 24 23 22 22 21 21 20 20 20 19 19 19 18 18 18 16 15 16 14 12 15 18
4 2 6 6 6 5 5 5 2 1 3 4 1 4 2 8 6 4 4 2 8 14 15 11 6 6 8 8 8 7 7 8 9 10 11 15 19 21 22 23 23 24 24 24 24 24 24 24 24 24 24 24 24 25 26 26 27 28 28 30 30 30 33 35 34 33 33 33 32 31 30 29 28 26 25 24 23 22 21 21 20 20 20 20 19 18 19 18 17 17 16 15 16 16 15 16 18
3 5 7 6 6 5 5 4 3 3 3 5 6 6 3 6 4 1 2 2 8 12 11 8 6 6 6 6 6 5 6 6 7 8 12 17 20 21 22 22 23 24 25 25 25 24 24 24 24 24 24 25 25 26 27 28 28 28 29 31 30 32 35 36 35 34 33 33 33 32 31 30 29 27 26 25 23 23 22 21 20 20 20 19 18 18 19 18 17 17 16 15 15 17 17 16 18
6 6 7 6 5 5 4 2 4 2 5 6 7 10 6 5 4 4 4 4 7 7 7 6 6 6 5 5 5 6 6 6 6 7 11 16 18 20 22 22 23 24 25 25 25 25 25 24 24 24 24 25 27 28 28 28 29 29 29 29 29 34 38 38 37 37 35 35 34 33 32 31 29 28 27 25 24 23 22 22 20 20 20 19 19 19 18 18 18 17 17 17 17 17 18 17 18
5 5 5 4 3 4 4 4 4 1 6 5 3 4 5 6 6 4 6 7 6 6 6 6 6 6 5 4 5 6 6 6 7 6 9 13 15 18 21 22 23 24 25 26 27 26 26 25 25 25 25 27 29 30 29 29 31 31 30 28 29 34 39 40 40 39 38 37 36 35 33 32 30 29 27 26 25 24 22 22 21 20 20 19 19 19 19 18 18 18 18 18 18 18 17 17 18
4 5 6 4 2 3 3 3 0 3 6 3 2 1 3 8 8 7 11 12 9 9 8 8 8 7 6 4 5 5 6 7 7 7 8 10 14 18 22 23 24 25 27 27 28 28 28 28 27 27 28 30 32 32 31 31 32 31 29 30 33 36 39 41 41 40 38 37 37 36 35 34 32 30 29 27 26 24 22 21 20 20 20 20 20 20 19 19 18 18 18 18 18 18 16 16 16
4 5 6 4 2 1 2 3 2 4 5 3 2 1 3 5 5 10 17 16 11 8 8 8 8 8 6 4 5 5 6 7 8 8 9 10 15 20 22 24 25 26 27 28 29 29 29 29 29 29 30 32 34 33 32 33 33 31 30 32 35 38 40 40 40 39 38 37 36 36 35 34 33 31 29 27 26 24 22 20 20 19 20 20 20 20 19 19 18 17 18 18 18 17 15 14 14
5 4 5 5 5 5 4 4 4 5 3 3 3 2 4 3 3 7 11 10 8 7 6 6 7 7 4 2 4 6 7 8 8 9 10 12 18 22 23 25 25 26 27 28 29 30 30 30 31 31 31 33 34 33 32 33 32 31 32 34 36 39 40 40 39 39 38 37 36 35 34 32 31 30 29 27 25 24 22 21 20 19 20 19 18 18 18 18 17 17 17 18 18 16 14 14 13
3 2 4 3 5 5 2 3 5 2 3 3 2 4 5 4 6 8 7 6 8 7 6 5 7 5 2 3 5 6 7 8 9 9 10 12 19 22 23 24 25 26 27 29 30 31 31 31 31 32 32 34 35 33 32 33 32 31 33 35 37 39 40 40 39 38 37 36 35 34 33 32 30 30 28 27 25 24 22 22 21 20 20 18 17 17 16 16 16 16 17 17 17 16 13 13 12
2 3 3 4 4 6 4 2 1 3 2 4 2 4 5 3 8 9 6 8 8 7 7 7 7 2 3 6 6 7 8 8 8 9 9 12 17 21 23 25 26 27 28 29 31 32 33 32 32 32 32 34 35 34 33 33 32 33 34 36 38 39 40 40 40 38 37 35 34 33 32 31 30 29 28 27 26 25 23 23 22 21 20 18 17 16 15 16 15 15 16 16 16 15 13 12 11
5 4 6 3 2 3 4 1 3 3 3 5 1 5 5 2 6 5 0 6 10 9 9 8 5 3 5 7 6 7 8 7 7 7 7 10 16 20 23 25 27 29 30 31 32 32 33 33 33 33 33 34 35 34 34 34 34 34 35 37 38 39 40 40 39 38 37 36 35 33 32 31 30 29 28 27 26 26 25 23 22 22 20 19 18 17 15 15 15 15 15 15 14 13 11 11 9
4 4 4 4 2 2 2 2 2 1 3 5 3 4 4 6 6 2 3 9 11 11 11 8 8 8 8 7 6 7 7 7 7 7 7 10 16 21 23 25 26 28 30 30 31 31 32 32 33 34 35 36 36 35 34 34 34 35 36 38 39 39 39 39 38 38 37 36 35 34 33 32 31 30 28 28 27 26 25 24 23 22 21 20 18 17 16 15 14 14 14 14 14 12 10 10 9
3 1 2 2 2 3 3 3 3 3 2 3 3 4 5 7 7 6 9 11 11 11 9 8 11 11 7 7 7 8 8 8 8 9 9 10 16 21 23 25 26 27 29 29 30 31 31 31 32 33 34 35 35 36 35 34 34 35 36 38 38 39 39 38 38 38 37 36 35 35 34 33 32 30 29 28 28 27 26 25 23 22 22 21 19 17 16 15 14 13 13 13 13 12 10 9 8
3 3 4 3 1 2 1 1 2 4 3 2 2 6 9 6 5 9 11 10 11 10 8 9 10 8 7 8 8 7 8 8 8 9 9 10 16 20 22 25 26 26 27 28 30 31 30 30 31 32 32 32 33 34 35 34 34 35 36 38 39 39 38 38 38 38 37 36 36 35 34 33 32 31 30 29 28 27 25 24 23 22 21 20 19 18 17 16 14 13 13 12 12 12 10 8 7
5 5 7 7 5 4 2 2 1 3 2 4 3 7 12 5 4 7 8 7 8 8 7 8 7 7 8 7 8 8 8 8 9 9 8 10 15 19 21 23 24 24 26 27 28 29 29 29 30 31 32 33 33 34 35 35 35 36 37 39 39 39 39 38 39 38 37 37 37 36 35 34 32 31 30 29 28 27 25 24 23 22 21 20 18 17 17 15 14 14 13 12 11 10 9 8 6
Wind_Direction
341 339 346 353 346 347 8 49 81 344 72 77 329 58 231 227 216 176 330 315 30 347 278 99 87 97 81 118 143 159 140 138 166 123 165 227 49 93 184 179 161 162 167 166 157 161 157 149 152 145 137 137 140 139 132 133 130 126 126 122 117 117 115 110 104 98 94 93 90 87 84 80 78 76 69 61 61 62 62 64 65 63 58 55 55 59 60 61 61 62 63 67 72 76 80 78 74
340 338 354 31 15 35 277 60 94 343 52 74 283 174 248 299 90 177 176 140 176 176 159 95 92 77 61 92 111 107 65 73 172 154 241 311 70 92 166 200 199 176 172 171 162 165 161 155 154 143 142 145 141 137 130 133 133 126 125 121 115 113 113 109 105 101 97 96 91 88 84 78 77 74 67 62 63 63 62 65 67 64 60 56 56 58 61 62 62 64 68 75 79 79 78 77 75
347 336 9 86 32 44 81 41 86 60 71 107 269 242 282 20 182 202 192 175 195 173 88 38 78 59 45 56 48 75 47 317 122 101 285 20 63 71 39 177 179 178 177 176 170 167 165 163 153 143 148 148 141 135 131 137 138 132 125 122 116 111 114 113 108 106 102 99 96 91 85 77 76 73 67 62 62 63 62 63 66 65 61 58 57 59 62 62 63 66 70 79 82 78 76 74 75
0 4 354 131 49 36 60 40 115 113 106 181 249 259 265 177 194 220 232 224 231 184 28 20 61 355 59 64 2 93 304 292 62 25 298 12 24 15 40 129 155 172 178 178 180 175 163 165 155 145 149 147 141 134 134 139 141 141 133 127 124 118 119 120 113 110 107 104 101 93 85 78 76 74 67 63 63 63 62 62 63 64 63 60 58 59 62 63 64 66 71 79 81 78 74 74 77
50 49 57 144 78 50 87 77 101 94 170 185 161 259 250 204 196 229 268 271 246 171 171 90 81 290 60 88 116 126 282 300 347 351 336 356 54 86 103 136 148 166 177 178 183 181 164 170 160 144 148 145 139 136 136 137 140 147 145 139 133 124 120 122 117 113 112 109 103 95 87 80 77 75 69 65 65 64 62 61 61 62 63 61 59 59 61 63 64 66 71 75 79 77 74 77 82
98 68 67 91 81 141 111 88 91 75 208 171 141 249 236 206 198 204 273 342 42 133 162 81 117 165 60 299 167 161 231 325 323 345 347 357 108 159 153 155 156 164 177 179 184 181 177 182 161 149 152 146 141 138 137 137 136 147 153 148 137 127 123 124 119 115 116 113 107 100 90 80 77 75 71 69 68 66 61 59 59 60 60 60 60 59 60 62 64 66 70 74 75 74 74 83 87
149 84 50 70 46 39 94 108 143 145 183 169 172 227 216 207 198 166 304 0 69 48 82 67 109 117 73 289 254 238 216 350 311 355 344 1 109 167 165 175 175 169 172 178 185 180 192 202 160 158 160 149 146 141 140 137 136 144 154 156 144 133 129 126 121 120 120 118 114 107 90 80 79 76 72 70 68 66 60 56 56 57 58 60 61 61 60 61 65 67 70 73 73 72 76 86 89
101 160 23 76 37 26 86 99 163 181 162 223 232 222 213 201 176 123 314 211 136 24 60 353 59 98 328 44 169 256 29 10 329 12 346 13 129 174 170 186 194 179 172 177 183 183 197 213 172 167 165 158 151 148 146 138 139 143 150 160 156 144 134 130 129 128 126 122 121 112 93 86 84 79 74 71 69 66 60 55 54 54 56 60 62 63 62 62 66 68 70 73 72 74 81 86 87
58 50 70 78 75 38 56 47 337 225 266 275 262 242 224 182 156 115 126 80 142 90 18 279 27 90 227 81 270 273 19 21 352 19 353 45 151 178 178 189 206 192 176 178 181 185 197 208 210 179 168 167 158 155 152 141 142 144 150 160 160 152 139 137 138 136 134 129 126 116 101 93 86 81 77 72 70 66 60 57 55 53 55 62 64 65 64 65 69 71 71 72 73 78 83 85 87
36 31 118 78 80 53 33 32 253 256 261 272 266 246 205 168 148 105 132 111 148 92 346 272 78 76 139 137 271 298 13 5 123 67 359 129 162 178 184 185 198 202 182 179 181 184 194 202 218 211 187 177 168 161 156 149 146 148 161 164 159 151 143 143 142 143 143 139 134 125 111 99 88 82 77 72 71 66 61 58 56 54 57 64 66 67 67 67 69 73 74 74 78 84 85 86 88
32 1 91 79 72 94 173 191 250 267 276 300 288 252 200 165 131 73 73 101 152 99 142 323 90 135 105 301 263 231 315 338 157 157 26 120 167 178 183 182 177 190 185 169 176 183 194 202 210 217 218 192 182 172 160 156 151 151 167 168 160 152 150 151 148 151 147 141 137 132 121 105 93 86 78 71 71 66 63 60 57 57 61 65 67 69 69 69 70 72 75 75 79 85 86 86 85
76 347 60 86 118 164 189 163 224 275 312 324 283 279 158 141 130 151 157 131 123 85 150 233 171 143 85 304 261 267 289 147 170 149 131 132 177 178 177 181 173 178 190 169 168 179 196 209 219 224 234 213 192 184 168 160 162 158 162 170 163 161 163 159 156 158 147 143 142 137 127 113 101 91 82 71 69 67 65 62 60 60 63 66 67 69 70 71 72 73 76 77 79 82 84 83 81
112 135 85 94 145 142 148 140 223 307 327 277 207 294 111 134 184 186 162 129 111 109 200 244 192 113 108 251 283 299 222 173 174 152 162 156 176 181 174 177 179 182 181 185 189 187 190 202 222 226 240 226 205 203 184 168 171 166 161 168 167 171 174 169 165 162 155 152 149 145 136 125 113 98 87 73 69 67 66 65 65 64 64 68 69 69 68 68 69 70 73 75 78 79 79 78 76
128 145 104 107 97 110 141 134 225 168 248 255 229 290 122 147 203 174 141 117 209 177 248 289 164 122 153 246 303 280 211 181 173 162 167 152 160 185 175 173 186 194 183 187 199 188 183 195 206 204 214 216 213 215 193 181 181 173 169 173 174 178 181 181 176 171 168 160 156 154 150 142 127 107 91 76 70 68 68 69 69 69 68 70 72 72 70 69 68 67 67 70 72 73 73 72 70
128 128 87 104 79 89 161 161 159 155 224 232 188 297 77 84 138 134 148 145 222 215 16 339 112 161 185 179 240 251 171 172 170 162 164 158 161 169 173 176 183 187 182 185 188 182 176 186 192 194 204 204 213 222 202 191 189 181 176 179 182 184 187 190 187 185 181 167 166 168 168 159 142 119 101 82 73 71 70 70 73 74 71 73 75 75 75 73 72 71 71 72 73 73 72 72 70
117 112 71 90 121 159 179 169 124 129 241 223 215 52 86 303 144 135 241 147 148 339 22 284 23 15 181 171 231 259 148 163 164 163 164 160 167 160 157 169 177 175 171 169 169 175 180 186 185 197 203 200 213 216 208 201 197 193 185 186 193 194 191 192 195 195 189 174 171 175 179 173 157 138 122 102 82 78 72 69 74 78 75 75 77 77 78 78 77 77 78 78 77 76 76 76 75
67 79 69 86 152 189 185 170 169 163 231 238 277 186 120 268 254 158 274 73 110 7 13 256 313 5 192 217 272 170 148 159 160 165 164 158 170 175 161 160 170 183 201 217 188 190 223 244 235 220 209 211 216 197 196 208 207 207 197 198 206 206 198 194 199 195 190 179 178 181 183 181 167 155 149 130 104 93 81 70 73 81 80 78 79 80 80 82 83 83 83 82 81 81 81 81 80
56 80 92 132 173 195 184 177 191 171 191 210 229 167 136 182 235 158 114 33 45 24 2 334 323 330 210 276 297 147 150 156 163 163 162 158 163 174 185 182 166 182 209 234 242 236 243 249 240 233 224 229 219 185 192 208 210 218 211 210 216 218 214 207 203 194 191 185 186 186 183 185 177 172 165 147 130 112 91 78 79 83 82 81 83 83 85 87 89 89 87 86 86 85 84 83 81
84 107 95 188 195 198 187 175 186 170 159 178 194 157 149 186 173 123 216 332 16 44 302 347 335 297 252 26 119 148 153 156 167 163 159 161 163 165 177 193 194 192 196 212 228 228 227 232 231 230 231 235 215 190 203 208 203 211 213 217 220 222 228 221 216 202 194 195 197 194 186 184 185 185 174 164 155 131 110 100 92 86 86 85 86 87 90 93 94 93 90 89 89 87 85 83 81
123 107 90 218 208 215 207 182 191 205 159 147 164 152 161 230 171 116 191 167 1 220 231 227 269 249 226 229 131 149 160 159 166 164 159 160 166 171 176 189 204 214 214 214 221 222 219 230 234 229 231 234 216 199 207 204 196 202 212 220 217 219 229 224 224 218 203 204 203 198 192 186 191 194 181 178 173 148 134 126 102 93 97 91 91 93 95 97 97 95 92 90 88 86 84 82 80
101 99 144 205 178 180 209 194 197 199 164 143 141 122 165 248 169 140 148 144 276 245 224 199 213 216 199 210 164 157 163 161 165 164 161 160 163 172 180 188 200 212 221 223 227 232 229 234 239 233 230 229 228 215 213 209 200 204 213 218 216 218 228 228 228 226 217 213 206 202 198 190 193 199 187 184 186 168 155 149 128 119 121 110 100 99 100 101 100 97 94 91 88 86 83 81 78
71 54 184 190 146 121 189 184 179 157 125 107 117 140 183 174 131 155 156 190 240 230 230 213 214 200 180 178 166 160 160 161 165 166 164 165 169 174 184 195 206 216 224 227 228 231 229 232 238 237 232 229 232 225 226 218 197 205 217 215 220 220 223 229 228 227 228 224 212 206 200 193 197 202 195 195 196 178 163 162 155 144 137 128 115 110 111 107 103 101 97 93 91 88 86 83 80
93 19 298 209 189 138 114 160 174 136 114 132 154 177 129 98 275 200 174 219 226 228 253 233 232 191 162 153 153 156 160 164 165 170 172 173 179 186 199 213 228 236 237 239 238 236 232 230 232 234 233 233 233 227 233 232 203 208 216 210 216 217 218 226 227 228 232 233 229 215 198 194 200 199 198 201 198 184 173 171 167 163 149 141 139 132 127 119 112 108 102 99 98 93 89 86 83
88 96 304 215 197 267 337 95 153 127 123 183 179 122 124 170 232 67 213 242 243 276 281 194 175 150 144 141 149 157 159 164 164 170 173 177 188 198 216 233 248 258 257 254 251 247 241 234 230 228 227 228 231 230 236 239 220 214 218 214 210 208 209 217 220 218 215 224 230 213 196 197 200 199 203 204 196 186 180 175 169 173 166 156 159 158 147 138 131 121 112 108 105 98 95 92 88
65 133 218 144 199 282 320 71 102 112 115 147 114 136 236 200 190 300 244 250 270 76 83 108 121 124 135 140 148 153 152 158 161 166 171 177 188 200 223 242 256 267 269 268 266 262 255 244 234 225 219 217 220 224 230 232 221 217 215 208 199 194 195 198 201 199 195 202 216 208 200 200 200 201 206 204 193 185 181 178 172 174 178 175 173 172 164 156 148 135 125 117 111 105 102 99 94
133 137 170 94 358 325 348 76 55 15 334 77 122 257 289 283 265 276 252 227 155 102 88 100 120 124 139 142 151 155 153 161 162 166 172 178 194 210 228 244 261 273 273 283 288 283 280 265 240 221 213 211 211 211 219 217 203 202 194 186 189 193 185 179 181 186 190 190 192 197 195 196 200 199 195 190 188 183 178 179 177 175 180 185 183 178 170 162 148 137 130 123 116 109 106 104 100
144 111 106 77 343 328 41 54 357 8 310 156 179 248 295 337 334 261 262 179 143 108 100 110 129 144 154 144 159 162 164 169 167 168 170 179 202 218 232 236 263 280 267 289 299 296 302 293 247 210 203 204 203 201 209 210 194 191 185 178 180 182 176 170 180 194 194 179 173 173 168 179 187 176 166 168 174 171 169 174 175 174 177 176 172 168 158 151 141 133 129 122 116 110 109 106 103
102 116 117 8 342 319 67 17 317 65 242 182 169 238 303 354 265 237 252 174 154 127 139 155 144 163 166 157 164 170 180 175 172 178 179 188 200 210 220 218 253 272 260 269 277 269 262 248 196 191 191 194 196 193 199 209 209 191 184 179 169 168 172 177 181 181 177 162 156 162 158 160 159 152 151 150 153 156 158 162 161 160 164 155 148 151 145 141 137 130 126 120 116 113 112 108 105
84 93 128 324 356 359 273 335 275 172 189 174 151 287 289 237 226 246 254 148 130 127 161 190 184 197 192 181 181 189 195 181 183 194 193 195 195 200 209 215 243 248 236 235 235 219 209 196 183 184 184 188 190 187 192 201 201 178 169 172 165 164 165 166 163 158 157 150 149 155 154 152 148 147 147 141 141 148 150 150 148 144 141 138 138 144 143 140 136 129 124 121 119 116 113 110 108
297 41 80 335 2 342 294 42 51 157 164 159 144 270 273 246 246 262 230 147 130 144 194 209 210 221 216 205 200 211 209 192 198 202 198 197 197 203 207 219 239 235 219 222 224 201 193 192 187 184 180 183 181 177 181 180 178 168 159 160 157 155 152 151 149 146 147 147 147 148 146 144 142 145 143 138 138 142 143 141 140 136 134 136 138 142 143 138 132 126 125 124 121 117 113 112 111
21 8 47 29 17 283 294 3 129 149 171 92 121 239 269 267 270 286 209 167 154 185 212 213 219 226 219 221 213 223 222 206 211 208 199 198 201 206 205 213 230 229 210 213 223 195 186 188 186 184 177 178 175 173 174 168 170 173 159 151 149 146 142 140 137 134 137 138 139 140 139 138 138 140 139 138 139 140 142 140 136 134 134 139 141 141 141 137 131 126 127 127 122 118 115 113 112
32 356 315 354 142 271 304 291 158 146 341 64 116 230 273 272 278 304 213 175 175 205 221 219 223 225 219 226 218 226 237 222 222 211 197 194 197 201 203 208 216 221 210 210 218 192 181 183 180 182 176 172 173 169 164 158 161 165 153 145 147 148 142 138 135 132 130 130 133 134 134 137 137 139 141 142 142 141 138 132 129 129 133 140 141 138 137 133 132 129 128 129 123 119 116 114 112
357 62 239 276 165 284 316 314 228 194 71 28 148 231 279 278 288 329 131 172 187 221 239 231 225 225 219 221 218 222 234 232 228 210 195 191 196 199 202 207 208 213 212 210 212 193 181 175 169 178 176 168 167 161 155 151 152 155 150 147 151 152 149 144 139 137 133 133 135 134 136 138 138 140 143 143 141 137 131 126 126 128 132 135 134 133 133 133 133 131 126 125 123 121 118 115 113
322 22 218 240 198 228 298 311 296 38 107 221 218 230 256 265 281 320 177 177 190 223 239 235 227 228 222 218 218 218 219 223 222 205 193 191 197 199 203 210 207 206 210 208 203 192 182 171 164 173 177 167 165 164 161 159 157 157 151 148 151 151 152 147 143 143 140 139 139 137 141 142 141 142 143 142 137 131 127 126 127 127 128 130 129 129 131 133 132 129 124 122 122 121 120 118 116
202 187 166 251 240 217 254 281 267 106 105 224 217 247 258 269 276 260 211 184 194 225 240 243 236 229 224 221 218 216 218 221 214 199 190 190 196 198 203 209 204 201 205 202 196 192 184 174 164 166 170 163 160 161 163 159 153 153 149 146 148 147 147 146 145 144 141 141 141 142 148 148 145 142 142 140 133 129 126 125 124 124 127 127 126 127 130 131 129 126 123 123 123 122 122 121 119
159 176 149 172 221 248 238 250 263 215 172 237 227 238 253 264 274 266 228 184 207 240 253 254 245 232 226 222 220 216 219 223 208 195 190 189 194 199 203 203 200 198 198 194 189 190 184 175 165 159 161 159 154 151 153 151 144 142 141 141 143 141 141 143 142 141 140 141 143 147 150 148 146 142 141 139 133 131 129 126 125 124 126 124 122 126 130 131 130 127 126 126 126 124 123 123 122
114 126 127 163 199 270 256 251 291 253 174 252 237 239 257 259 269 273 243 173 218 248 252 250 240 232 228 220 221 218 219 217 197 195 193 189 191 198 201 196 192 192 191 190 187 187 183 174 166 159 158 158 154 148 147 148 144 141 140 139 139 138 140 141 138 138 139 140 144 149 149 146 146 142 140 140 135 134 131 128 126 124 123 121 120 125 129 131 131 130 129 129 129 127 125 125 126
92 126 137 234 212 253 258 238 309 317 178 267 283 267 263 257 264 274 262 203 226 234 237 243 236 232 231 221 223 218 205 187 185 194 193 189 190 194 197 190 188 189 186 189 186 183 182 176 169 162 159 157 155 152 151 152 150 150 147 140 137 138 140 140 137 137 139 142 144 147 145 144 144 140 140 140 137 135 132 129 127 125 123 120 119 124 129 131 132 134 134 131 131 129 127 130 133
84 110 131 261 249 265 282 304 337 357 180 271 323 305 267 255 258 264 254 236 236 232 230 239 236 231 230 222 221 209 192 182 184 192 191 191 189 189 192 187 188 191 187 187 184 179 177 176 172 166 161 160 160 160 159 155 152 151 146 139 137 136 137 138 137 138 142 145 145 144 144 143 143 140 140 139 136 134 133 131 128 125 123 120 120 124 128 132 133 137 138 136 134 130 127 136 148
117 133 147 241 259 267 284 304 335 6 135 280 317 301 273 256 250 253 252 247 254 251 243 249 239 230 233 225 213 203 196 190 186 190 189 190 188 185 189 186 185 187 184 183 179 175 172 171 172 168 166 165 165 167 164 157 151 147 142 138 137 135 135 138 139 140 144 144 143 144 144 144 143 140 139 138 136 133 132 129 126 124 123 123 123 123 125 127 130 134 136 139 139 132 121 113 126
247 183 175 210 226 217 237 290 323 346 15 19 345 305 281 255 246 255 273 307 283 262 253 259 247 235 246 238 212 204 198 189 186 189 186 186 186 185 186 185 183 183 182 182 180 178 173 171 173 173 173 172 171 173 169 160 153 149 142 136 134 133 134 138 141 141 144 144 144 144 144 143 142 140 139 137 135 132 130 127 126 124 124 125 125 123 123 123 124 126 129 134 135 131 120 103 95
286 230 203 213 211 213 251 353 9 1 336 347 19 318 285 288 261 260 289 320 280 267 247 255 253 240 238 234 219 200 196 193 187 186 183 183 183 182 184 184 182 182 182 182 182 182 178 175 176 179 180 178 176 175 171 164 158 155 150 144 142 138 135 139 144 145 145 145 144 144 143 142 142 140 138 136 134 132 129 127 126 125 124 124 124 122 122 123 123 122 124 126 122 125 125 111 99
300 254 209 209 181 169 208 92 54 304 267 295 56 75 281 293 249 243 275 290 279 284 266 257 257 237 224 226 218 195 191 191 184 184 180 180 180 178 182 185 182 182 182 182 182 183 182 179 181 184 185 181 177 172 169 165 161 158 157 154 153 149 145 145 148 147 146 145 144 144 143 142 141 140 138 135 134 132 129 128 127 126 124 121 121 119 119 120 119 119 119 119 117 121 129 119 110
248 250 157 156 157 174 182 149 169 236 268 309 54 113 270 285 257 249 297 303 289 284 268 261 253 230 228 224 214 200 193 186 179 181 178 181 182 179 182 184 184 183 182 182 182 184 185 183 184 187 187 183 177 173 170 168 166 163 160 156 153 153 152 151 149 148 146 146 145 145 144 143 142 141 139 136 134 133 131 131 129 127 123 120 120 118 116 116 116 117 116 116 116 117 121 119 118
249 202 119 129 143 152 131 120 148 1 352 301 252 127 226 273 265 297 341 287 267 267 261 262 257 235 233 228 218 203 193 186 179 177 179 183 183 182 183 183 184 184 183 184 185 186 187 186 186 187 187 185 181 177 174 171 170 167 164 159 154 152 152 150 150 149 148 148 147 147 146 145 143 142 140 138 136 136 135 133 130 128 125 124 124 119 118 119 118 118 117 117 117 113 112 114 115
199 127 95 80 80 81 83 97 106 53 330 252 198 161 216 270 247 235 4 227 242 257 264 269 264 252 243 233 221 197 181 179 177 176 178 183 183 182 182 181 183 184 184 186 188 188 188 187 186 186 187 186 183 179 176 173 173 170 167 165 160 155 152 151 151 151 151 151 150 149 148 147 145 143 142 140 140 140 138 135 133 131 130 128 127 124 125 125 123 123 121 120 120 116 115 114 112
143 110 72 55 38 39 52 47 78 66 282 253 202 184 192 270 262 198 209 220 227 249 283 294 286 277 260 235 211 186 176 173 172 170 173 180 182 180 179 179 182 184 183 184 186 188 188 187 187 187 186 185 181 178 176 174 174 173 172 171 168 163 158 156 155 154 155 155 153 151 150 148 147 146 145 145 144 143 140 139 138 135 134 132 131 130 131 131 130 130 127 125 124 121 120 117 114
110 90 83 72 353 9 25 356 47 119 255 264 254 202 184 240 257 239 250 260 240 227 253 272 273 274 263 236 205 184 177 171 167 163 167 174 178 179 178 178 180 182 182 183 184 186 187 187 188 186 185 183 181 178 178 178 176 175 175 177 176 171 166 163 161 160 160 159 156 153 152 151 150 149 149 149 147 146 144 144 143 140 138 138 137 137 136 136 135 133 131 128 125 122 121 119 116
81 100 108 95 341 351 349 311 64 222 252 272 322 339 218 241 252 263 267 266 251 225 225 239 245 255 259 235 203 181 169 171 171 171 172 175 180 181 179 178 179 181 183 184 185 185 186 188 188 188 187 185 183 180 181 182 180 179 180 181 179 175 171 169 166 164 162 161 159 157 156 155 154 153 153 151 149 149 150 148 145 144 144 144 143 141 140 138 137 135 132 128 124 121 120 117 112
155 146 139 132 131 122 274 274 272 265 267 295 304 243 248 268 264 248 248 253 253 233 225 232 238 248 257 235 191 175 176 180 181 180 180 184 185 183 181 180 181 182 184 185 186 187 187 188 190 190 189 186 185 184 185 185 184 183 184 184 180 176 173 171 169 167 165 164 163 162 160 159 157 156 155 153 152 153 152 149 148 149 149 148 146 143 140 138 137 135 132 128 124 121 120 115 109
186 161 139 157 162 166 214 225 227 258 282 308 297 230 200 218 256 246 242 260 275 258 241 241 249 253 254 225 171 175 189 189 189 189 188 191 187 185 183 183 184 185 185 185 186 188 189 190 192 191 189 187 186 187 189 189 187 185 184 183 180 177 175 173 171 170 168 167 166 164 163 162 160 159 157 156 156 156 154 153 154 153 151 150 147 143 139 139 139 136 133 130 126 125 124 118 112
217 130 114 186 189 157 176 202 180 192 314 301 247 226 217 215 267 267 251 270 281 273 273 261 259 256 202 197 189 189 201 196 193 193 192 193 190 187 185 184 186 187 186 187 187 188 190 191 192 193 192 190 189 191 192 191 189 187 185 183 181 179 176 174 173 172 171 170 169 167 166 164 163 161 159 159 158 159 159 158 158 156 153 151 148 145 143 142 143 141 138 135 131 131 131 123 118
161 136 176 212 174 123 118 241 54 73 273 269 209 248 290 313 280 269 247 259 275 286 284 258 257 258 186 214 210 201 208 201 199 197 193 191 188 190 189 186 187 188 188 189 190 191 193 192 192 192 192 191 191 193 193 192 190 189 187 185 183 181 178 177 175 174 173 172 171 170 168 166 165 164 163 163 163 164 164 163 161 158 155 153 151 150 149 148 149 146 143 140 136 135 136 129 125
126 180 205 176 97 88 105 225 349 44 248 272 248 249 284 291 274 303 52 242 259 268 262 256 263 247 221 228 216 212 213 200 203 200 192 192 190 192 193 190 190 190 191 192 193 194 195 195 194 192 192 192 193 194 194 194 193 191 190 187 185 183 181 179 178 176 175 174 173 172 171 169 168 168 167 167 167 168 168 166 164 160 157 157 156 155 155 155 155 151 146 143 139 140 141 135 132
128 185 183 122 142 199 114 164 223 169 246 282 294 266 255 213 229 276 185 216 235 245 248 256 259 239 231 232 215 216 212 194 199 197 189 194 195 195 194 193 193 193 193 194 194 195 195 195 196 195 196 196 195 195 194 194 195 194 193 190 187 185 182 181 180 178 178 177 175 175 174 173 171 172 172 172 172 172 171 170 168 163 161 161 160 159 159 159 160 156 151 149 145 147 150 143 142
52 87 134 97 129 174 159 155 169 173 226 280 312 299 256 219 201 197 208 212 215 227 234 241 249 241 223 219 213 209 205 198 196 194 195 195 195 196 194 193 193 193 195 195 194 195 195 196 196 196 197 196 194 195 194 194 195 195 193 191 188 186 184 182 182 181 181 179 178 178 177 176 175 175 176 175 176 176 175 173 170 167 165 164 164 163 162 162 164 162 160 158 155 156 158 153 151
157 160 170 180 116 116 158 156 130 137 168 219 282 285 266 241 183 191 209 212 205 212 220 224 244 254 227 210 209 204 203 205 200 194 196 193 192 195 195 195 194 193 194 195 194 196 196 196 197 196 195 194 192 193 194 195 196 195 193 191 189 187 186 185 185 185 183 182 181 181 179 178 178 178 179 179 179 180 179 176 173 171 169 167 167 167 166 167 169 170 168 167 165 164 165 163 163
176 189 192 187 164 127 144 244 217 130 173 191 181 269 269 244 182 197 202 212 208 203 224 238 243 248 237 217 204 203 203 203 201 195 193 189 189 191 193 195 194 192 192 193 194 195 196 197 197 196 196 195 193 193 195 196 196 196 195 192 190 189 188 188 187 187 186 185 184 183 182 181 181 181 182 182 182 182 182 180 178 176 173 171 171 170 169 171 176 179 176 174 174 173 173 172 175